カタログに戻る

FENGYUN 1C DEB

運用中SSO
NORAD 30514·DEBRIS·🇨🇳 China

打ち上げ May 10, 1999 から Taiyuan Satellite Launch Center

Loading…

次のパス (今後24時間)

TLE

最新Source: Space-Track

元期: Sep 13, 2026, 18:34 UTC

1 30514U 99025AJC 26256.77417417  .00001090  00000-0  33709-3 0  9992
2 30514  98.3937 278.0459 0171218 355.0368   4.9113 14.35220929 21670

AllMySatでFENGYUN 1C DEBをリアルタイム追跡

Download on the App Store